Overview Statistics Trail Chart Weather Telemetry Raw packets
 

This is the latest recevied weather packets stored in our database for station/object W0AKY-13. If no packets are shown the sender has not sent any weather packets the latest 10 day(s).

<< 52 53 54 55 56 57 58 >>
Time Temp. Humidity Pressure Rain* Wind** Luminosity Snow
1788223336 28.89° C 81% 1014.6 hPa 0 mm - 6 W/m² -
1788223039 29.44° C 79% 1014.5 hPa 0 mm - 8 W/m² -
1788222730 30° C 76% 1014.3 hPa 0 mm - 10 W/m² -
1788222429 30° C 72% 1014.5 hPa 0 mm - 12 W/m² -
1788222125 30.56° C 72% 1014.6 hPa 0 mm - 13 W/m² -
1788221820 30.56° C 71% 1014.4 hPa 0 mm - 15 W/m² -
1788221515 31.11° C 74% 1014.4 hPa 0 mm - 17 W/m² -
1788221210 31.67° C 68% 1014.5 hPa 0 mm - 20 W/m² -
1788220905 31.67° C 66% 1014.4 hPa 0 mm - 21 W/m² -
1788220604 31.67° C 65% 1014.3 hPa 0 mm - 23 W/m² -
1788220300 32.22° C 65% 1014.4 hPa 0 mm - 25 W/m² -
1788219999 32.22° C 66% 1014.5 hPa 0 mm - 27 W/m² -
1788219695 32.78° C 63% 1014.4 hPa 0 mm - 31 W/m² -
1788219390 32.78° C 61% 1014.8 hPa 0 mm - 31 W/m² -
1788219085 33.33° C 60% 1015 hPa 0 mm - 36 W/m² -
1788218781 33.89° C 59% 1014.6 hPa 0 mm - 43 W/m² -
1788218477 33.89° C 56% 1014.6 hPa 0 mm - 57 W/m² -
1788218172 33.89° C 57% 1014.6 hPa 0 mm - 68 W/m² -
1788217876 33.89° C 56% 1014.8 hPa 0 mm - 79 W/m² -
1788217564 33.89° C 55% 1014.9 hPa 0 mm - 65 W/m² -
1788217264 34.44° C 61% 1014.9 hPa 0 mm - 63 W/m² -
1788216961 35° C 54% 1014.8 hPa 0 mm - 74 W/m² -
1788216659 35° C 56% 1015 hPa 0 mm - 167 W/m² -
1788216354 35° C 59% 1014.9 hPa 0 mm - 124 W/m² -
1788216049 35° C 56% 1014.8 hPa 0 mm - 157 W/m² -

* Rain latest hour (hover to see other rain measurements)
** Current wind speed in m/s (hover to see current wind gust speed)